CAPE
0 0 0 0 0 0 0 0 0 0 0 0 0 0 0 0 0 0 0 0 0 0 0 0 0 0 0 0 0 0 17 4 0 0 1 179 199 261 166 162 130 191 105 94 56
0 0 0 0 0 0 0 0 0 0 0 0 0 0 0 0 0 0 0 0 0 0 0 0 0 0 0 0 0 0 9 33 83 0 91 514 430 470 154 126 147 104 49 33 23
0 0 0 0 0 0 0 0 0 0 0 0 0 0 0 0 0 0 0 0 0 0 0 0 0 0 0 0 0 31 46 128 151 216 422 346 319 342 96 85 76 61 9 2 0
0 0 0 0 0 0 0 0 0 0 0 0 0 0 0 0 0 0 0 0 0 0 0 0 0 0 182 143 373 166 282 251 231 402 428 275 82 79 96 34 3 11 6 1 0
0 0 0 0 0 0 0 0 0 0 0 0 0 0 0 0 0 0 0 0 0 0 0 0 38 178 139 255 289 257 265 205 169 135 86 48 40 27 26 8 16 9 0 0 0
0 0 0 0 0 0 0 0 0 0 0 0 0 0 0 0 0 0 0 0 0 0 0 0 83 268 184 178 396 292 217 198 194 173 99 62 14 16 17 3 2 1 0 0 0
0 0 0 0 0 0 0 0 0 0 0 0 0 0 0 0 0 0 0 0 0 0 0 0 54 4 130 425 339 289 268 226 204 71 22 17 4 0 4 5 1 1 0 0 0
0 0 0 0 0 0 0 0 0 0 0 0 0 0 0 0 0 0 0 0 0 0 0 0 0 0 210 337 202 383 293 274 135 85 62 24 15 9 3 7 2 1 0 0 0
0 0 0 0 0 0 0 0 0 0 0 0 0 0 0 0 0 0 0 0 0 0 0 0 0 44 180 84 11 84 0 55 193 55 98 41 10 11 5 2 0 0 0 0 0
0 0 0 0 0 0 0 0 0 0 0 0 0 0 0 0 0 0 0 0 0 0 0 0 0 0 3 0 0 0 2 56 30 46 67 29 0 0 0 0 0 0 0 0 0
0 0 0 0 0 0 0 0 0 0 0 0 0 0 0 0 0 0 0 0 0 0 0 0 0 0 0 0 0 0 5 29 28 21 30 0 0 0 1 5 0 0 0 0 0
0 0 0 0 0 0 0 0 0 0 0 0 0 0 0 0 0 0 0 0 0 0 0 0 0 0 0 1 30 15 19 26 12 0 0 0 0 0 2 5 0 0 0 0 0
0 0 0 0 0 0 0 0 0 0 0 0 0 0 0 0 0 0 0 0 0 0 0 0 0 0 0 1 1 7 10 18 21 0 0 0 2 3 7 29 14 5 0 0 0
0 0 0 0 0 0 0 0 0 0 0 0 0 0 0 0 0 0 0 0 0 0 0 0 0 0 0 0 0 0 0 30 16 9 0 0 6 2 0 22 69 46 19 0 12
0 0 0 0 0 0 0 0 0 0 0 0 0 0 0 0 0 0 0 0 0 0 0 0 0 1 2 0 0 0 11 27 8 0 0 3 8 0 0 11 14 28 17 24 2
0 0 0 0 0 0 0 0 0 0 0 0 0 0 0 0 0 0 0 0 0 0 4 7 3 6 0 0 0 0 1 1 0 0 2 3 1 0 0 2 20 46 25 44 32
0 0 0 0 0 0 0 0 0 0 0 0 0 0 0 0 0 0 0 0 0 1 5 7 6 6 0 0 0 0 0 1 0 0 0 0 0 0 0 12 40 26 14 14 7
0 0 0 0 0 0 0 0 0 0 0 0 0 0 0 0 0 0 0 2 0 0 0 0 0 0 0 0 0 0 0 0 0 0 0 0 0 0 19 55 22 20 15 0 0
0 0 0 0 0 0 0 0 0 0 0 0 1 1 0 2 4 3 0 0 0 0 10 0 0 0 0 0 0 0 0 0 0 0 0 0 2 48 31 7 9 8 0 0 0
0 0 0 0 0 0 0 0 0 0 0 0 0 0 8 8 18 4 0 0 0 0 0 0 0 0 0 0 0 0 0 0 0 3 1 0 0 0 64 35 21 20 4 0 0
0 0 0 0 0 0 0 0 0 0 0 0 0 0 0 10 10 6 0 0 0 0 0 0 0 0 0 0 0 0 0 0 0 0 0 0 0 0 4 37 43 20 3 0 0
0 0 0 0 0 0 0 0 0 0 0 0 0 0 0 1 0 0 0 0 0 0 0 0 0 0 0 0 0 0 0 0 0 0 0 0 0 0 0 26 56 33 1 0 0
0 0 0 0 0 0 0 0 0 0 0 0 0 0 0 0 0 0 0 0 0 0 0 0 0 0 0 0 0 0 0 0 0 0 0 0 0 0 0 1 6 8 0 0 0
0 0 0 0 0 0 0 0 0 0 0 0 0 0 0 0 0 0 0 0 0 0 0 0 0 0 0 0 0 0 0 0 0 0 0 0 0 0 0 0 0 0 0 0 0
0 0 0 0 0 0 0 0 0 0 0 0 0 0 0 0 0 0 0 0 0 0 0 0 0 0 0 0 0 0 0 0 0 0 0 0 0 0 0 0 0 0 0 0 0
0 0 0 0 0 0 0 0 0 0 0 0 0 0 0 0 0 0 0 0 0 0 0 0 0 0 0 0 0 0 0 0 0 0 0 0 0 0 0 0 0 0 0 0 0
0 0 0 0 0 0 0 0 0 0 0 0 0 0 0 0 0 0 0 0 0 0 0 0 0 0 0 0 0 0 0 0 0 0 0 0 0 0 0 0 0 0 0 0 0
CIN
-0 -0 -0 -0 -0 -0 -0 -0 -0 -0 -0 -0 -0 -0 -0 -0 -0 -0 -0 -0 -0 -0 -0 -0 -0 -0 -0 -0 -0 -0 -159 -61 -0 -0 -130 -181 -157 -136 -104 -114 -125 -100 -124 -142 -157
-0 -0 -0 -0 -0 -0 -0 -0 -0 -0 -0 -0 -0 -0 -0 -0 -0 -0 -0 -0 -0 -0 -0 -0 -0 -0 -0 -0 -0 -0 -138 -117 -229 -7 -257 -139 -135 -77 -113 -116 -118 -130 -169 -186 -167
-0 -0 -0 -0 -0 -0 -0 -0 -0 -0 -0 -0 -0 -0 -0 -0 -0 -0 -0 -0 -0 -0 -0 -0 -0 -0 -0 -0 -0 -189 -123 -225 -307 -289 -183 -155 -173 -107 -141 -145 -135 -96 -119 -76 -4
-0 -0 -0 -0 -0 -0 -0 -0 -0 -0 -0 -0 -0 -0 -0 -0 -0 -0 -0 -0 -0 -0 -0 -0 -0 -0 -175 -152 -307 -142 -361 -247 -298 -228 -181 -196 -221 -188 -159 -157 -24 -117 -136 -62 -0
-0 -0 -0 -0 -0 -0 -0 -0 -0 -0 -0 -0 -0 -0 -0 -0 -0 -0 -0 -0 -0 -0 -0 -0 -190 -210 -119 -184 -241 -230 -325 -349 -325 -324 -324 -294 -251 -218 -155 -120 -91 -116 -0 -0 -0
-0 -0 -0 -0 -0 -0 -0 -0 -0 -0 -0 -0 -0 -0 -0 -0 -0 -0 -0 -0 -0 -0 -0 -0 -131 -217 -218 -338 -214 -380 -352 -322 -268 -276 -254 -240 -237 -218 -156 -3 -42 -24 -11 -0 -0
-0 -0 -0 -0 -0 -0 -0 -0 -0 -0 -0 -0 -0 -0 -0 -0 -0 -0 -0 -0 -0 -0 -0 -0 -220 -10 -298 -299 -376 -338 -279 -267 -222 -272 -265 -249 -238 -0 -2 -14 -20 -0 -0 -0 -0
-0 -0 -0 -0 -0 -0 -0 -0 -0 -0 -0 -0 -0 -0 -0 -0 -0 -0 -0 -0 -0 -0 -0 -0 -0 -0 -247 -377 -302 -190 -221 -155 -186 -211 -222 -238 -201 -43 -3 -2 -0 -0 -0 -0 -0
-0 -0 -0 -0 -0 -0 -0 -0 -0 -0 -0 -0 -0 -0 -0 -0 -0 -0 -0 -0 -0 -0 -0 -0 -0 -240 -306 -192 -227 -245 -0 -244 -173 -275 -181 -222 -224 -93 -4 -0 -0 -0 -0 -0 -0
-0 -0 -0 -0 -0 -0 -0 -0 -0 -0 -0 -0 -0 -0 -0 -0 -0 -0 -0 -0 -0 -0 -0 -0 -0 -0 -63 -0 -0 -0 -201 -288 -290 -280 -191 -213 -0 -0 -0 -0 -0 -0 -0 -0 -0
-0 -0 -0 -0 -0 -0 -0 -0 -0 -0 -0 -0 -0 -0 -0 -0 -0 -0 -0 -0 -0 -0 -0 -0 -0 -0 -0 -0 -0 -0 -236 -273 -367 -333 -248 -1 -0 -0 -1 -0 -0 -0 -0 -0 -0
-0 -0 -0 -0 -0 -0 -0 -0 -0 -0 -0 -0 -0 -0 -0 -0 -0 -0 -0 -0 -0 -0 -0 -0 -0 -0 -0 -59 -165 -221 -237 -335 -358 -0 -0 -0 -0 -0 -0 -23 -0 -0 -0 -0 -0
-0 -0 -0 -0 -0 -0 -0 -0 -0 -0 -0 -0 -0 -0 -0 -0 -0 -0 -0 -0 -0 -0 -0 -0 -0 -0 -0 -86 -27 -71 -125 -286 -288 -0 -0 -0 -34 -35 -35 -66 -80 -48 -3 -0 -0
-0 -0 -0 -0 -0 -0 -0 -0 -0 -0 -0 -0 -0 -0 -0 -0 -0 -0 -0 -0 -0 -0 -0 -0 -0 -0 -0 -0 -0 -0 -0 -314 -303 -253 -0 -0 -39 -78 -0 -88 -32 -44 -55 -0 -16
-0 -0 -0 -0 -0 -0 -0 -0 -0 -0 -0 -0 -0 -0 -0 -0 -0 -0 -0 -0 -0 -0 -0 -0 -0 -56 -46 -0 -0 -0 -335 -251 -268 -0 -2 -141 -67 -0 -0 -49 -26 -67 -59 -40 -7
-0 -0 -0 -0 -0 -0 -0 -0 -0 -0 -0 -0 -0 -0 -0 -0 -0 -0 -0 -0 -0 -0 -28 -87 -156 -120 -0 -0 -0 -0 -220 -205 -0 -0 -61 -87 -53 -0 -0 -25 -47 -53 -60 -55 -57
-0 -0 -0 -0 -0 -0 -0 -0 -0 -0 -0 -0 -0 -0 -0 -0 -0 -0 -0 -0 -0 -10 -56 -81 -111 -139 -0 -0 -0 -0 -0 -23 -0 -0 -0 -0 -0 -0 -0 -34 -32 -24 -51 -75 -103
-0 -0 -0 -0 -0 -0 -0 -0 -0 -0 -0 -0 -0 -0 -0 -1 -0 -0 -0 -76 -0 -0 -0 -0 -0 -0 -0 -0 -0 -0 -0 -0 -0 -0 -0 -0 -0 -0 -44 -47 -56 -49 -86 -0 -0
-0 -0 -0 -0 -0 -0 -0 -0 -0 -0 -0 -0 -5 -6 -11 -77 -83 -123 -0 -0 -0 -0 -74 -0 -0 -0 -0 -0 -0 -0 -0 -0 -0 -0 -0 -0 -26 -32 -61 -68 -64 -75 -0 -0 -0
-0 -0 -0 -0 -0 -0 -0 -0 -0 -0 -0 -0 -0 -0 -63 -86 -72 -72 -0 -0 -0 -0 -0 -0 -0 -0 -0 -0 -0 -0 -0 -0 -0 -4 -19 -0 -0 -0 -41 -49 -62 -73 -104 -0 -0
-0 -0 -0 -0 -0 -0 -0 -0 -0 -0 -0 -0 -0 -0 -0 -70 -106 -134 -2 -0 -0 -0 -0 -0 -0 -0 -0 -0 -0 -0 -0 -0 -0 -0 -0 -0 -0 -0 -21 -43 -36 -46 -96 -0 -0
-0 -0 -0 -0 -0 -0 -0 -0 -0 -0 -0 -0 -0 -0 -0 -16 -4 -0 -0 -0 -0 -0 -0 -0 -0 -0 -0 -0 -0 -0 -0 -0 -0 -0 -0 -0 -0 -0 -0 -35 -61 -69 -104 -0 -0
-0 -0 -0 -0 -0 -0 -0 -0 -0 -0 -0 -0 -0 -0 -0 -0 -0 -0 -0 -0 -0 -0 -0 -0 -0 -0 -0 -0 -0 -0 -0 -0 -0 -0 -0 -0 -0 -0 -0 -28 -88 -119 -0 -0 -0
-0 -0 -0 -0 -0 -0 -0 -0 -0 -0 -0 -0 -0 -0 -0 -0 -0 -0 -0 -0 -0 -0 -0 -0 -0 -0 -0 -0 -0 -0 -0 -0 -0 -0 -0 -0 -0 -0 -0 -0 -0 -0 -0 -0 -0
-0 -0 -0 -0 -0 -0 -0 -0 -0 -0 -0 -0 -0 -0 -0 -0 -0 -0 -0 -0 -0 -0 -0 -0 -0 -0 -0 -0 -0 -0 -0 -0 -0 -0 -0 -0 -0 -0 -0 -0 -0 -0 -0 -0 -0
-0 -0 -0 -0 -0 -0 -0 -0 -0 -0 -0 -0 -0 -0 -0 -0 -0 -0 -0 -0 -0 -0 -0 -0 -0 -0 -0 -0 -0 -0 -0 -0 -0 -0 -0 -0 -0 -0 -0 -0 -0 -0 -0 -0 -0
-0 -0 -0 -0 -0 -0 -0 -0 -0 -0 -0 -0 -0 -0 -0 -0 -0 -0 -0 -0 -0 -0 -0 -0 -0 -0 -0 -23 -0 -1 -0 -0 -0 -0 -0 -0 -0 -0 -0 -0 -0 -0 -0 -0 -0
Wind_Speed
16 15 15 19 20 21 21 23 23 23 21 19 20 20 19 18 17 12 11 12 13 24 5 9 8 10 11 12 14 16 17 17 19 19 18 14 17 21 20 20 19 19 17 18 17
16 16 8 10 17 20 22 22 20 18 17 17 18 17 16 16 13 11 9 16 8 14 9 11 12 13 14 14 16 17 16 17 18 21 18 17 18 17 17 19 19 19 19 18 18
24 23 5 11 16 21 20 17 15 16 15 15 15 14 15 14 9 10 12 24 12 9 11 12 11 14 16 17 17 17 17 16 20 22 22 21 22 18 17 17 17 16 18 18 19
26 24 8 14 20 19 15 14 15 15 14 14 13 14 14 12 15 12 11 5 7 9 11 14 17 17 18 20 19 17 19 17 19 19 20 21 25 24 20 18 18 18 18 17 19
24 23 22 20 20 15 14 15 15 14 13 13 13 13 12 10 13 12 5 6 7 8 9 12 20 18 18 15 18 16 19 20 22 22 23 23 24 24 23 20 19 17 17 18 18
24 23 21 20 17 15 15 15 15 14 14 13 13 13 12 10 13 15 19 18 8 13 9 14 17 22 15 13 15 17 19 20 20 20 20 21 22 21 22 22 21 19 19 18 18
23 21 20 19 17 16 16 15 15 15 14 13 13 12 13 17 14 18 23 19 10 10 12 14 15 13 16 17 17 17 19 20 19 19 20 23 24 23 21 19 20 19 17 17 18
21 20 19 18 17 16 16 15 15 15 15 15 13 13 16 17 17 20 23 19 13 15 16 16 15 14 15 18 14 15 18 17 14 16 16 17 20 20 19 20 19 18 18 18 17
20 20 19 17 16 16 15 15 15 15 15 15 13 13 14 14 16 19 25 22 4 13 12 12 12 14 12 14 15 11 15 15 13 13 14 17 17 17 17 17 17 17 17 17 17
20 19 18 17 16 15 15 15 15 15 13 14 13 12 12 14 14 17 19 22 18 15 11 11 12 12 11 11 11 11 13 15 16 17 14 17 18 18 18 16 16 16 16 16 15
19 18 17 16 15 14 13 12 13 13 14 15 16 15 14 12 9 7 10 10 13 13 9 12 10 11 9 7 15 13 14 15 16 16 18 15 16 17 15 16 15 15 15 15 14
19 18 17 16 14 14 12 10 12 15 16 15 16 16 15 9 9 10 10 13 13 15 13 12 14 13 14 15 16 16 15 17 17 17 18 15 17 15 15 15 13 14 14 14 15
19 18 17 15 14 12 12 13 14 17 12 15 12 11 10 12 13 13 12 14 17 18 13 10 10 12 13 14 15 14 16 11 15 16 18 15 17 16 15 13 13 13 15 15 17
19 19 17 15 13 14 13 15 17 11 11 11 12 11 11 12 15 15 11 14 16 14 17 18 16 15 14 15 17 19 16 13 12 15 20 12 19 15 12 11 11 12 16 16 16
19 19 17 14 16 14 15 17 13 12 12 14 13 14 12 12 16 17 13 13 16 15 14 14 15 15 17 16 15 19 15 14 13 20 17 15 19 18 13 13 11 13 16 15 16
18 18 16 16 17 17 17 15 13 14 13 11 13 12 12 15 16 15 13 14 15 16 16 15 15 16 16 21 17 17 18 18 18 19 22 16 18 18 13 12 12 14 15 16 17
17 18 19 18 16 17 17 14 14 13 14 14 10 11 13 14 15 14 14 14 15 15 18 18 17 17 16 18 15 18 16 23 21 20 22 17 17 19 9 11 10 11 14 17 18
17 16 20 21 18 17 14 13 12 14 16 15 12 11 12 13 15 15 13 16 21 18 17 18 20 22 22 17 16 16 18 21 22 22 21 18 19 17 12 12 13 12 15 18 20
13 17 18 17 16 14 13 12 12 14 13 13 12 12 13 14 12 14 16 18 21 23 20 21 21 19 23 21 19 20 21 17 21 21 20 18 17 14 13 12 12 13 15 17 19
14 15 16 16 12 12 12 13 12 14 14 14 14 14 14 15 15 15 18 20 22 25 21 21 19 22 21 22 25 21 17 22 22 21 22 19 17 14 11 10 11 12 13 16 18
13 11 15 12 13 11 13 15 14 13 13 14 16 16 17 16 17 16 17 18 23 23 24 22 22 23 20 22 23 23 23 23 19 19 21 21 18 15 11 9 10 10 13 15 17
12 10 14 12 11 13 13 17 13 11 14 17 18 18 18 18 18 16 17 19 24 20 22 22 20 22 20 21 20 22 23 21 21 20 20 19 19 21 14 11 11 14 15 15 16
12 11 12 11 14 15 11 9 11 14 18 18 19 20 19 17 16 15 16 19 24 22 21 20 23 22 20 19 21 23 23 22 20 20 21 22 21 21 19 20 19 16 16 16 17
13 12 13 12 12 9 8 10 12 16 18 19 18 19 19 22 21 17 17 19 21 22 22 20 22 19 18 18 17 21 23 24 22 23 21 21 22 21 21 22 20 18 17 16 18
13 14 14 18 12 7 9 11 13 16 18 20 19 20 20 19 20 19 19 19 20 24 21 21 22 20 20 19 20 21 22 24 24 21 23 22 23 26 24 20 18 18 17 18 18
12 15 11 11 11 8 12 13 13 15 17 20 18 21 21 19 19 18 20 20 19 21 22 21 18 17 18 19 21 22 23 23 24 23 24 25 25 24 23 21 19 17 17 18 18
11 9 9 12 11 8 11 11 13 15 20 18 17 20 23 22 19 19 20 21 20 19 19 19 16 17 14 15 18 22 23 24 23 24 23 27 26 22 24 22 20 17 18 19 19
Wind_Direction
264 255 250 266 264 267 273 292 304 307 294 269 285 289 283 281 278 326 360 22 37 103 240 30 336 355 339 16 17 36 31 33 17 19 16 4 45 26 37 27 22 25 40 47 39
260 262 208 215 251 268 284 293 279 264 265 263 278 276 273 276 280 281 281 84 248 211 9 31 32 52 48 44 53 50 43 41 7 31 34 27 39 42 32 30 29 39 35 36 42
295 290 112 218 249 285 282 256 238 261 248 257 261 261 265 256 331 320 248 155 242 272 271 327 360 64 57 68 70 46 31 26 16 49 45 42 25 32 36 14 20 35 49 43 36
306 289 48 238 277 282 244 228 252 245 243 244 253 259 256 248 48 263 250 15 280 284 278 13 76 80 80 90 77 47 4 33 42 39 41 43 56 31 25 26 39 45 50 38 23
281 287 285 278 284 240 234 239 243 235 232 243 251 262 249 261 211 244 294 12 345 43 262 150 66 69 63 41 31 26 42 33 55 46 42 49 41 51 50 52 42 39 43 38 38
302 291 294 295 259 243 240 242 241 228 236 247 253 249 242 241 233 220 102 89 342 198 273 18 54 73 29 342 360 49 47 49 48 41 35 41 51 46 50 63 56 42 44 40 39
296 294 303 288 255 249 250 248 237 234 238 242 246 252 234 199 228 199 165 189 24 216 350 36 41 334 33 31 54 48 44 36 31 43 49 43 24 36 52 34 32 40 52 51 45
294 298 292 275 255 251 253 244 237 232 234 239 250 253 198 214 229 203 192 217 249 115 88 86 37 21 12 65 20 34 37 32 53 35 47 41 27 46 59 41 34 36 55 55 49
290 289 283 269 255 254 248 245 237 233 232 240 258 262 222 241 228 211 181 203 68 43 22 44 13 21 34 43 24 62 29 29 40 37 46 33 37 40 37 37 47 53 49 50 54
283 284 275 265 257 250 255 230 226 240 254 251 252 265 262 278 253 217 210 216 254 293 25 38 6 14 56 56 26 27 33 26 18 15 31 28 34 35 41 55 53 53 45 42 53
279 276 266 258 257 267 279 257 276 276 277 244 236 230 251 260 246 258 258 290 285 303 27 355 36 65 93 76 25 46 38 28 29 33 17 16 24 31 43 44 53 48 44 40 37
270 268 260 257 274 278 290 314 340 276 260 234 222 221 224 274 358 351 329 352 338 342 8 16 358 35 12 47 49 50 35 12 21 17 17 17 17 34 37 39 52 40 38 36 31
265 266 254 266 283 277 280 276 292 294 306 250 279 314 306 46 5 46 55 6 354 347 5 23 40 41 62 46 26 18 10 27 13 25 24 32 14 21 27 46 44 40 34 31 22
265 257 257 273 268 263 290 277 265 289 330 288 307 312 343 4 357 340 337 354 0 28 28 20 40 52 29 14 11 3 13 27 42 17 359 20 359 11 22 22 34 39 24 24 24
261 255 259 267 253 275 279 272 294 324 18 284 295 279 328 349 342 336 326 351 12 25 41 30 29 24 10 10 18 6 31 30 27 359 12 9 359 4 18 10 21 28 21 28 26
260 255 257 253 259 248 262 271 301 333 4 341 306 336 339 337 344 344 353 355 13 18 15 21 21 17 22 6 31 49 26 12 6 3 353 1 358 358 6 18 27 27 27 26 21
260 248 240 247 257 258 269 300 337 353 319 318 1 5 28 358 354 357 3 350 347 358 355 1 4 8 6 11 39 12 15 351 346 348 348 2 356 357 25 30 33 33 32 25 20
254 247 231 231 247 267 278 332 344 0 17 260 356 19 17 9 344 337 354 347 348 359 5 355 344 352 351 356 358 356 351 346 340 343 347 357 353 5 27 33 29 35 25 22 18
260 239 244 250 251 269 309 332 7 37 232 336 337 358 357 341 359 348 353 344 341 345 351 345 346 358 355 355 352 354 351 2 350 351 351 358 7 19 24 27 29 30 21 16 19
252 254 252 252 271 291 320 293 330 200 264 345 12 352 12 354 358 347 336 336 335 339 349 349 352 353 353 356 1 7 14 351 354 349 349 358 4 11 30 32 27 19 18 17 18
259 271 253 268 273 299 265 245 232 264 350 347 15 10 6 1 359 358 354 357 345 342 349 353 353 350 357 359 360 1 359 360 9 5 355 359 12 28 40 47 26 20 17 18 19
262 278 263 266 272 277 275 220 259 308 348 12 15 9 3 359 359 2 0 357 349 360 354 357 358 355 4 5 17 14 5 10 4 6 11 13 13 13 34 38 26 18 18 22 20
266 270 267 267 256 248 262 341 339 345 341 353 348 350 355 7 8 12 6 4 355 359 359 4 355 352 353 3 6 7 13 22 27 22 15 8 12 13 20 18 14 17 22 22 19
255 264 252 266 280 301 337 354 28 347 353 358 4 8 13 359 360 6 6 5 5 8 5 6 358 355 352 356 14 14 12 15 18 12 19 17 11 16 13 11 17 22 23 22 18
270 251 251 239 282 327 329 340 354 345 354 345 1 3 7 9 7 7 4 6 9 2 7 4 1 13 22 31 28 19 14 12 15 24 16 16 14 8 9 16 19 22 25 21 18
268 242 272 273 285 0 313 316 360 359 349 354 12 4 3 14 16 9 5 2 3 1 4 9 9 24 18 30 21 13 10 12 7 8 10 8 10 13 19 24 23 27 26 21 19
283 285 293 273 288 335 320 347 8 13 356 11 20 13 3 1 11 22 28 23 16 9 9 14 23 11 9 19 3 352 0 6 12 0 12 5 10 22 18 20 27 31 29 23 22